Weather in Novosretenka

Russia / Republic of Buryatia     50°43′21″N   107°40′57″E
temp.,
°C
wind,
m/s
gust,
m/s
humid.,
%
clouds,
%
prec.,
mm/h
press.,
hPa
HPBL,
m
27 february, sat
sat2723:00−14wnw4890100 0.1 1019403
02:00−17wnw41092100 0.2 1022543
05:00−19w3789100 0.1 1029182
08:00−22w339066 0.1 103471
11:00−17wnw367718 0.0 1036762
14:00−15wnw356656 0.0 10351427
17:00−16nw357171 0.0 1035627
20:00−23n127776 0.0 103920
28 february, sun
sun2823:00−24ne117466 0.0 104120
02:00−23ene127975 0.0 104120
05:00−24e1185100 0.0 104120
08:00−25ene1192100 0.0 104220
11:00−20s118792 0.0 1041199
14:00−16sw227960 0.0 1038376
17:00−16ssw11859 0.0 1038129
20:00−23n11925 0.0 104020
1 march, mon
mon123:00−24ene118910 0.0 104220
02:00−22e128954 0.0 104120
05:00−25ese119290 0.0 103920
08:00−27ne009655 0.0 103920
11:00−19s11860 0.0 1034168
14:00−15ssw23800 0.0 1029338
17:00−15ssw11850 0.0 1026127
20:00−20ene11910 0.0 102720
2 march, tue
tue223:00−18ene118866 0.0 102421
02:00−18ese118483 0.0 102120
05:00−20ssw118795 0.0 101920
08:00−21sse118670 0.0 101920
11:00−13s117948 0.0 101497
14:00−8sw237374 0.0 1011324
17:00−7sw2382100 0.0 1010227
20:00−11w1285100 0.0 101321
3 march, wed
wed323:00−14w118681 0.0 101521
02:00−14wnw119465 0.0 101421
05:00−13nw1295100 0.0 101421
08:00−14wsw119799 0.2 101520
11:00−9sw1283100 0.0 1013381
14:00−6w127287 0.0 1012622
17:00−7n2282100 0.0 1012223
20:00−12nne2286100 0.0 101525